When you browse on this site, cookies collect data to enhance your experience and personalize the content and advertising you see.
Visit our Privacy Policy to learn more. By continuing to use the site, you agree to this use of cookies and data.
  • In United Kingdom
  • List of Countries
  • For 7 days
  • Water Temperature
  • Satellite Maps
  • Weather Map
  • Weather Widgets
  • user-avatar
    Login

    Hourly Weather Eshonguzar

    Today, 20 March, Wednesday

    Time Temperature Precipitation Wind Pressure Humidity
    00:00 +14°C° 0.2 mm 1 mps 725 mmHg 79%
    01:00 +14°C° 0.2 mm 1 mps 725 mmHg 81%
    02:00 +13°C° 0.2 mm 1 mps 726 mmHg 84%
    03:00 +13°C° 0.3 mm 1 mps 726 mmHg 84%
    04:00 +13°C° 0.3 mm 1 mps 726 mmHg 84%
    05:00 +13°C° 0 mm 1 mps 725 mmHg 86%
    06:00 +13°C° 0 mm 1 mps 725 mmHg 83%
    07:00 +13°C° 0 mm 1 mps 725 mmHg 80%
    08:00 +13°C° 0 mm 1 mps 725 mmHg 77%
    09:00 +14°C° 0 mm 1 mps 725 mmHg 71%
    10:00 +15°C° 0 mm 1 mps 725 mmHg 64%
    11:00 +16°C° 0 mm 2 mps 725 mmHg 57%
    12:00 +16°C° 0.4 mm 2 mps 725 mmHg 57%
    13:00 +16°C° 0.4 mm 2 mps 725 mmHg 57%
    14:00 +17°C° 0.4 mm 2 mps 725 mmHg 57%
    15:00 +16°C° 0.6 mm 2 mps 725 mmHg 59%
    16:00 +16°C° 0.6 mm 2 mps 725 mmHg 61%
    17:00 +16°C° 0 mm 1 mps 725 mmHg 59%
    18:00 +16°C° 0.2 mm 2 mps 725 mmHg 62%
    19:00 +15°C° 0.2 mm 2 mps 726 mmHg 66%
    20:00 +14°C° 0.2 mm 2 mps 726 mmHg 70%
    21:00 +14°C° 0 mm 2 mps 726 mmHg 71%
    22:00 +13°C° 0 mm 2 mps 726 mmHg 72%
    23:00 +13°C° 0 mm 2 mps 726 mmHg 72%

    Tomorrow, 21 March, Thursday

    Time Temperature Precipitation Wind Pressure Humidity
    00:00 +13°C° 0 mm 2 mps 726 mmHg 73%
    01:00 +13°C° 0 mm 1 mps 726 mmHg 74%
    02:00 +12°C° 0 mm 1 mps 727 mmHg 74%
    03:00 +12°C° 0.1 mm 2 mps 727 mmHg 75%
    04:00 +12°C° 0.1 mm 2 mps 727 mmHg 76%
    05:00 +12°C° 0.1 mm 2 mps 727 mmHg 78%
    06:00 +12°C° 0 mm 2 mps 728 mmHg 76%
    07:00 +12°C° 0 mm 2 mps 728 mmHg 74%
    08:00 +13°C° 0 mm 2 mps 728 mmHg 73%
    09:00 +14°C° 0 mm 2 mps 729 mmHg 68%
    10:00 +15°C° 0 mm 2 mps 729 mmHg 64%
    11:00 +16°C° 0 mm 2 mps 729 mmHg 59%
    12:00 +16°C° 0.1 mm 2 mps 729 mmHg 56%
    13:00 +18°C° 0.1 mm 1 mps 729 mmHg 53%
    14:00 +19°C° 0.1 mm 1 mps 728 mmHg 49%
    15:00 +18°C° 0.3 mm 2 mps 728 mmHg 49%
    16:00 +18°C° 0.3 mm 2 mps 728 mmHg 48%
    17:00 +18°C° 0.3 mm 2 mps 728 mmHg 48%
    18:00 +17°C° 0.1 mm 2 mps 728 mmHg 52%
    19:00 +16°C° 0.1 mm 2 mps 729 mmHg 56%
    20:00 +15°C° 0.1 mm 1 mps 729 mmHg 60%
    21:00 +15°C° 0 mm 1 mps 729 mmHg 61%
    22:00 +15°C° 0 mm 1 mps 729 mmHg 62%
    23:00 +15°C° 0 mm 1 mps 728 mmHg 63%

    Day after tomorrow, 22 March, Friday

    Time Temperature Precipitation Wind Pressure Humidity
    00:00 +14°C° 0 mm 1 mps 728 mmHg 63%
    01:00 +14°C° 0 mm 1 mps 728 mmHg 63%
    02:00 +14°C° 0 mm 1 mps 728 mmHg 63%
    03:00 +14°C° 0 mm 1 mps 728 mmHg 62%
    04:00 +13°C° 0 mm 1 mps 727 mmHg 61%
    05:00 +13°C° 0 mm 2 mps 727 mmHg 60%
    06:00 +13°C° 0 mm 1 mps 727 mmHg 57%
    07:00 +14°C° 0 mm 1 mps 727 mmHg 54%
    08:00 +14°C° 0 mm 1 mps 728 mmHg 51%
    09:00 +15°C° 0 mm 1 mps 728 mmHg 49%
    10:00 +17°C° 0 mm 2 mps 728 mmHg 47%
    11:00 +18°C° 0 mm 3 mps 728 mmHg 45%
    12:00 +18°C° 0 mm 2 mps 728 mmHg 44%
    13:00 +19°C° 0 mm 2 mps 727 mmHg 44%
    14:00 +19°C° 0 mm 2 mps 727 mmHg 43%
    15:00 +19°C° 0 mm 2 mps 727 mmHg 44%
    16:00 +19°C° 0 mm 2 mps 727 mmHg 44%
    17:00 +19°C° 0 mm 2 mps 727 mmHg 45%
    18:00 +18°C° 0 mm 3 mps 727 mmHg 51%
    19:00 +17°C° 0 mm 3 mps 727 mmHg 56%
    20:00 +14°C° 0 mm 3 mps 727 mmHg 62%
    21:00 +14°C° 0 mm 3 mps 727 mmHg 62%
    22:00 +14°C° 0 mm 3 mps 726 mmHg 61%
    23:00 +15°C° 0 mm 2 mps 726 mmHg 61%

    23 March, Saturday

    Time Temperature Precipitation Wind Pressure Humidity
    00:00 +14°C° 0 mm 2 mps 726 mmHg 59%
    01:00 +14°C° 0 mm 1 mps 726 mmHg 57%
    02:00 +14°C° 0 mm 1 mps 725 mmHg 56%
    03:00 +14°C° 0 mm 1 mps 725 mmHg 55%
    04:00 +14°C° 0 mm 1 mps 725 mmHg 54%
    05:00 +13°C° 0 mm 1 mps 725 mmHg 54%
    06:00 +14°C° 0 mm 1 mps 725 mmHg 53%
    07:00 +14°C° 0 mm 1 mps 725 mmHg 53%
    08:00 +14°C° 0 mm 1 mps 726 mmHg 53%
    09:00 +15°C° 0.2 mm 1 mps 726 mmHg 54%
    10:00 +15°C° 0.2 mm 1 mps 726 mmHg 56%
    11:00 +15°C° 0.2 mm 2 mps 726 mmHg 57%
    12:00 +14°C° 1.1 mm 2 mps 726 mmHg 63%
    13:00 +14°C° 1.1 mm 2 mps 726 mmHg 69%
    14:00 +13°C° 1.1 mm 2 mps 725 mmHg 74%
    15:00 +14°C° 0.1 mm 2 mps 726 mmHg 70%
    16:00 +14°C° 0.1 mm 2 mps 726 mmHg 65%
    17:00 +15°C° 0.1 mm 2 mps 726 mmHg 61%
    18:00 +14°C° 0.3 mm 2 mps 726 mmHg 64%
    19:00 +13°C° 0.3 mm 3 mps 727 mmHg 66%
    20:00 +12°C° 0.3 mm 3 mps 727 mmHg 69%
    21:00 +12°C° 0.2 mm 4 mps 727 mmHg 71%
    22:00 +11°C° 0.2 mm 4 mps 727 mmHg 73%
    23:00 +10°C° 0.2 mm 5 mps 727 mmHg 76%

    24 March, Sunday

    Time Temperature Precipitation Wind Pressure Humidity
    00:00 +11°C° 0 mm 4 mps 727 mmHg 74%
    01:00 +11°C° 0 mm 4 mps 727 mmHg 73%
    02:00 +10°C° 0 mm 3 mps 727 mmHg 72%
    03:00 +10°C° 0 mm 3 mps 727 mmHg 73%
    04:00 +10°C° 0 mm 2 mps 727 mmHg 73%
    05:00 +9°C° 0 mm 2 mps 728 mmHg 74%
    06:00 +11°C° 0 mm 1 mps 728 mmHg 73%
    07:00 +11°C° 0 mm 1 mps 728 mmHg 71%
    08:00 +12°C° 0 mm 1 mps 728 mmHg 70%
    09:00 +13°C° 0 mm 1 mps 728 mmHg 63%
    10:00 +15°C° 0 mm 1 mps 728 mmHg 55%
    11:00 +16°C° 0 mm 1 mps 728 mmHg 47%
    12:00 +18°C° 0 mm 1 mps 728 mmHg 43%
    13:00 +19°C° 0 mm 1 mps 727 mmHg 39%
    14:00 +20°C° 0 mm 1 mps 727 mmHg 34%
    15:00 +21°C° 0 mm 1 mps 727 mmHg 34%
    16:00 +20°C° 0 mm 2 mps 727 mmHg 34%
    17:00 +20°C° 0 mm 2 mps 727 mmHg 34%
    18:00 +19°C° 0 mm 2 mps 727 mmHg 38%
    19:00 +17°C° 0 mm 2 mps 727 mmHg 43%
    20:00 +16°C° 0 mm 3 mps 727 mmHg 47%
    21:00 +15°C° 0 mm 2 mps 726 mmHg 47%
    22:00 +15°C° 0 mm 2 mps 726 mmHg 47%
    23:00 +14°C° 0 mm 2 mps 726 mmHg 47%

    25 March, Monday

    Time Temperature Precipitation Wind Pressure Humidity
    00:00 +14°C° 0 mm 2 mps 726 mmHg 45%
    01:00 +14°C° 0 mm 2 mps 726 mmHg 43%
    02:00 +14°C° 0 mm 2 mps 725 mmHg 41%
    03:00 +13°C° 0 mm 2 mps 725 mmHg 39%
    04:00 +13°C° 0 mm 2 mps 725 mmHg 38%
    05:00 +13°C° 0 mm 2 mps 725 mmHg 36%
    06:00 +14°C° 0 mm 2 mps 725 mmHg 36%
    07:00 +14°C° 0 mm 2 mps 724 mmHg 36%
    08:00 +14°C° 0 mm 3 mps 724 mmHg 35%
    09:00 +18°C° 0 mm 3 mps 724 mmHg 30%
    10:00 +21°C° 0 mm 3 mps 724 mmHg 24%
    11:00 +24°C° 0 mm 3 mps 723 mmHg 19%
    12:00 +25°C° 0 mm 3 mps 723 mmHg 17%
    13:00 +26°C° 0 mm 2 mps 722 mmHg 16%
    14:00 +28°C° 0 mm 2 mps 721 mmHg 14%
    15:00 +27°C° 0 mm 2 mps 721 mmHg 16%
    16:00 +27°C° 0 mm 2 mps 721 mmHg 18%
    17:00 +27°C° 0 mm 2 mps 720 mmHg 20%
    18:00 +25°C° 0 mm 2 mps 720 mmHg 23%
    19:00 +23°C° 0 mm 2 mps 720 mmHg 26%
    20:00 +20°C° 0 mm 2 mps 720 mmHg 29%
    21:00 +20°C° 0 mm 3 mps 720 mmHg 29%
    22:00 +19°C° 0 mm 4 mps 720 mmHg 29%
    23:00 +19°C° 0 mm 4 mps 721 mmHg 29%
    Show more